Showing default

IRIDIUM 146, 43254

Orbit data source: Space-Track

IRIDIUM 146, 43254 is a payload satellite owned by Iridium (US) in LEO that was launched on Fri, 30 Mar 2018 UTC via an FALCON 9 launch vehicle from the Air Force Western Test Range (AFWTR). Payload-class satellites include a variety of spacecraft equipped with specific instruments for various scientific and technological missions. These include communications satellites like Starlink; space stations such as the ISS; scientific satellites like the Hubble; Earth observation satellites from companies like Planet Labs, Umbra, and HawkEye 360; GPS; miniature CubeSats for education and research; and military/defense satellites.

Loading next visibility...
Identifier
43254, 2018-030F
Orbit
LEO
Country
Flag of USUS
Related business
Manufacturer
OATK SSG Gilbert
Mission
Operational Commercial Communications
Bus & Motor
ELITEBUS, Unknown motor
Mass
860 kg wet, 700 kg dry
Launch date (UTC)
2018-03-30 (8 years ago)
Launch vehicle
FALCON 9
Launch site
Air Force Western Test Range (AFWTR)
Object type
Payload
Rocket body
Debris
Shape & HBR
Trap Box + 2 Pan, 4.8 m
Radar Cross Section
10.154 m², Large (>1 m²)

Expand to show TLE details & history
Last TLE update: 11 hours ago

TLE from 11 hours ago
0 IRIDIUM 146
1 43254U 18030F   26095.12587206  .00000198  00000-0  63511-4 0  9991
2 43254  86.3963 320.9862 0002253  87.1543 272.9911 14.34218640419665
Epoch: 2026-04-05T03:01Z
TLE epoch observation values (Epoch: 2026-04-05T03:01:15.345Z)
Latitude
0.00004°
Longitude
82.23648°
Altitude
780.631 km
Speed
7.464 km/s
True Right ascension
21h 23m 56s
True Declination
0° 00' 00"
Sunlit
Object was in daylight at epoch
Visualization orbit readout
Latitude
Unknown
Longitude
Unknown
Altitude
Unknown
Speed
Unknown
Apparent Right ascension
Unknown
Apparent Declination
Unknown
Sunlit
N/A
Visualization observer readout
Local Sidereal Time
19:30:23
Azimuth
Unknown
Elevation
Unknown
Doppler factor
Unknown
Orbital elements
Apogee altitude
776.24 km
Perigee altitude
773.017 km
Semi-major axis
7,152.766 km
Eccentricity
0.00023
Inclination
86.3963°
RAAN
320.9862°
Arg. of periapsis
87.1543°
True anomaly
272.96532°
Mean anomaly
272.9911°
Eccentric anomaly
272.97821°
Mean motion
3.58783 °/min
Orbital period
100.34 mins
BSTAR
0.000063511
Loading maneuver chart data...
Computing Atmospheric mass density...
Loading historical data...
Loading historical data...
Loading historical data...
Loading historical data...
Loading historical data...
Loading historical data...
Loading historical data...

Documentation

Showing up to 5 results
|